This is the latest recevied weather packets stored in our database for station/object KC5DAQ-25. If no packets are shown the sender has not sent any weather packets the latest 10 day(s).
| Time | Temp. | Humidity | Pressure | Rain* | Wind** | Luminosity | Snow |
|---|---|---|---|---|---|---|---|
| 1777567204 | 23.33° C | 88% | 1002.7 hPa | 0 mm | - | 348 W/m² | - |
| 1777567143 | 22.78° C | 88% | 1002.7 hPa | 0 mm | - | 348 W/m² | - |
| 1777567083 | 22.78° C | 88% | 1002.5 hPa | 0 mm | - | 348 W/m² | - |
| 1777567024 | 22.78° C | 88% | 1002.5 hPa | 0 mm | - | 348 W/m² | - |
| 1777566962 | 22.78° C | 88% | 1002.5 hPa | 0 mm | - | 334 W/m² | - |
| 1777566903 | 22.78° C | 88% | 1002.5 hPa | 0 mm | - | 308 W/m² | - |
| 1777566844 | 22.78° C | 88% | 1002.4 hPa | 0 mm | - | 308 W/m² | - |
| 1777566784 | 22.78° C | 88% | 1002.4 hPa | 0 mm | - | 308 W/m² | - |
| 1777566724 | 22.78° C | 88% | 1002.5 hPa | 0 mm | - | 702 W/m² | - |
| 1777566663 | 22.78° C | 88% | 1002.4 hPa | 0 mm | - | 682 W/m² | - |
| 1777566605 | 22.78° C | 88% | 1002.4 hPa | 0 mm | - | 440 W/m² | - |
| 1777566543 | 22.78° C | 88% | 1002.5 hPa | 0 mm | - | 440 W/m² | - |
| 1777566482 | 22.78° C | 88% | 1002.5 hPa | 0 mm | - | 345 W/m² | - |
| 1777566423 | 22.78° C | 88% | 1002.5 hPa | 0 mm | - | 345 W/m² | - |
| 1777566363 | 22.78° C | 88% | 1002.5 hPa | 0 mm | - | 452 W/m² | - |
| 1777566303 | 22.78° C | 88% | 1002.5 hPa | 0 mm | - | 357 W/m² | - |
| 1777566244 | 22.22° C | 88% | 1002.6 hPa | 0 mm | - | 357 W/m² | - |
| 1777566183 | 22.22° C | 88% | 1002.7 hPa | 0 mm | - | 357 W/m² | - |
| 1777566124 | 22.22° C | 88% | 1002.7 hPa | 0 mm | - | 357 W/m² | - |
| 1777566062 | 22.22° C | 88% | 1002.8 hPa | 0 mm | - | 174 W/m² | - |
| 1777566004 | 22.22° C | 88% | 1002.8 hPa | 0 mm | - | 174 W/m² | - |
| 1777565943 | 22.22° C | 88% | 1002.8 hPa | 0 mm | - | 174 W/m² | - |
| 1777565883 | 22.22° C | 89% | 1002.8 hPa | 0 mm | - | 174 W/m² | - |
| 1777565824 | 22.22° C | 88% | 1002.7 hPa | 0 mm | - | 174 W/m² | - |
| 1777565762 | 22.22° C | 89% | 1002.7 hPa | 0 mm | - | 172 W/m² | - |
* Rain latest hour (hover to see other rain measurements)
** Current wind speed in m/s (hover to see current wind gust speed)